Weather History for LIVC - November, 2012

Change the Weather History Date:

Tuesday, November 27, 2012

  Actual Average Record
Temperature  
Mean Temperature 36 °F -  
Max Temperature 37 °F 31 °F 53 °F (2006)
Min Temperature 34 °F 23 °F 8 °F (2013)
Degree Days  
Heating Degree Days 30    
Moisture  
Dew Point 34 °F    
Average Humidity 92    
Maximum Humidity 100    
Minimum Humidity 84    
Precipitation  
Precipitation 0.04 in 0.07 in - ()
Sea Level Pressure  
Sea Level Pressure 29.76 in    
Wind  
Wind Speed 36 mph ()    
Max Wind Speed 51 mph    
Max Gust Speed -    
Visibility 0.0 miles    
Events Fog , Rain , Thunderstorm    
Averages and records for this station are not official NWS values.
T = Trace of Precipitation, MM = Missing Value Source: Averaged Metar Reports

Daily Weather History Graph

Daily Weather History Graph

Search for Another Location

Airport or City:

Trip Planner

Search our weather history database for the weather conditions in past years. The results will help you decide how hot, cold, wet, or windy it might be!

Date:

Astronomy

Nov. 27, 2012 Rise Set
Actual Time 7:28 AM CET 4:41 PM CET
Civil Twilight 6:55 AM CET 5:13 PM CET
Nautical Twilight 6:20 AM CET 5:49 PM CET
Astronomical Twilight 5:45 AM CET 6:24 PM CET
Moon 4:02 PM CET (11/27) 6:16 AM CET (11/27)
Length of Visible Light 10h 17m
Length of Day
9h 13m
Waxing Gibbous, 99% of the Moon is Illuminated
Nov 27
Waxing Gibbous
Nov 28
Full
Dec 6
Last Quarter
Dec 13
New
Dec 20
First Quarter

Hourly Weather History & Observations

Time (CET) Temp. Windchill Dew Point Humidity Pressure Visibility Wind Dir Wind Speed Gust Speed Precip Events Conditions
12:55 AM 35.6 °F 21.0 °F 35.6 °F 100% 29.92 in 0.0 mi West 39.1 mph - N/A Fog Fog
1:00 AM 35 °F - 35 °F 98%  in 0 mi West 39.1 mph - - Fog Heavy Fog
1:55 AM 35.6 °F 22.5 °F 35.6 °F 100% 29.92 in 0.0 mi West 29.9 mph - N/A Fog Fog
2:55 AM 35.6 °F 21.9 °F 33.8 °F 93% 29.89 in 0.0 mi West 33.4 mph - N/A Fog Fog
3:55 AM 35.6 °F 21.5 °F 32.0 °F 87% 29.86 in 0.0 mi West 35.7 mph - N/A Fog Fog
4:55 AM 35.6 °F 21.9 °F 33.8 °F 93% 29.86 in 0.0 mi West 33.4 mph - N/A Fog Fog
5:55 AM 35.6 °F 21.0 °F 33.8 °F 93% 29.83 in 0.0 mi West 39.1 mph - N/A Fog Fog
6:55 AM 35.6 °F 21.7 °F 33.8 °F 93% 29.83 in 0.0 mi West 34.5 mph - N/A Fog Fog
7:00 AM 36 °F - 34 °F 89%  in 0 mi West 34.5 mph - - Fog Heavy Fog
7:55 AM 35.6 °F 19.8 °F 33.8 °F 93% 29.80 in 0.0 mi West 47.2 mph - N/A Fog Fog
8:55 AM 35.6 °F 19.6 °F 33.8 °F 93% 29.80 in 0.0 mi West 49.5 mph - N/A Fog Fog
9:55 AM 35.6 °F 20.1 °F 33.8 °F 93% 29.80 in 0.0 mi West 44.9 mph - N/A Fog Fog
10:55 AM 35.6 °F 20.1 °F 33.8 °F 93% 29.77 in 0.0 mi WSW 44.9 mph - N/A Fog Fog
11:55 AM 35.6 °F 19.4 °F 33.8 °F 93% 29.74 in 0.0 mi South 50.6 mph - N/A Fog Fog
12:55 PM 35.6 °F 19.7 °F 33.8 °F 93% 29.74 in 0.0 mi South 48.3 mph - N/A Fog , Rain Light Rain
1:00 PM 36 °F - 33 °F 84%  in 0 mi South 48.3 mph - - Rain Light Rain
1:55 PM 35.6 °F 19.8 °F 33.8 °F 93% 29.71 in 0.0 mi South 47.2 mph - N/A Fog , Rain Light Rain
2:55 PM 35.6 °F 20.0 °F 33.8 °F 93% 29.71 in 0.0 mi South 46.0 mph - N/A Fog , Rain Light Rain
3:55 PM 35.6 °F 20.0 °F 33.8 °F 93% 29.68 in 0.0 mi South 46.0 mph - N/A Fog , Rain Light Rain
4:55 PM 35.6 °F 20.3 °F 33.8 °F 93% 29.71 in 0.0 mi South 43.7 mph - N/A Fog , Rain Light Rain
6:55 PM 35.6 °F 20.1 °F 33.8 °F 93% 29.68 in 0.0 mi South 44.9 mph - N/A Fog Fog
7:00 PM 36 °F - 34 °F 87%  in 0 mi South 44.9 mph - - Fog Heavy Fog
7:55 PM 37.4 °F 23.5 °F 33.8 °F 87% 29.68 in 0.0 mi South 39.1 mph - N/A Fog Fog
8:55 PM 37.4 °F 24.2 °F 33.8 °F 87% 29.65 in 0.0 mi South 34.5 mph - N/A Fog , Rain Light Rain
9:55 PM 37.4 °F 23.1 °F 33.8 °F 87% 29.65 in 0.0 mi South 41.4 mph - N/A Fog , Rain , Thunderstorm Thunderstorms and Rain
10:55 PM 37.4 °F 23.1 °F 35.6 °F 93% 29.62 in 0.0 mi South 41.4 mph - N/A Fog , Rain Rain
11:55 PM 37.4 °F 24.2 °F 35.6 °F 93% 29.62 in 0.0 mi South 34.5 mph - N/A Fog , Rain Light Rain